Left ArrowRight Arrow

Hourly Observations for March 21, 2020

Temp ( °F °C ) Dew Point ( °F °C ) Humidity (%) Winds ( mph kmh ) Pressure ( in mb ) Visibility ( mi km ) Precip ( " mm )
12:53 am 00:53 Mostly Clear 45 7.2 36 2.2 71 71 N 7 11 30.44 1031 10 16 0.00 0.00
1:53 am 01:53 Partly Cloudy 44 6.7 35 1.7 71 71 N 3 6 30.42 1030 10 16 0.00 0.00
2:53 am 02:53 Mostly Cloudy 44 6.7 34 1.1 68 68 N 8 13 30.39 1029 10 16 0.00 0.00
3:53 am 03:53 Mostly Cloudy 44 6.7 34 1.1 68 68 N 5 7 30.39 1029 10 16 0.00 0.00
4:53 am 04:53 Mostly Cloudy 42 5.6 35 1.7 76 76 NNE 8 13 30.37 1028 10 16 0.00 0.00
5:53 am 05:53 Cloudy 43 6.1 36 2.2 76 76 NE 7 11 30.36 1028 10 16 0.00 0.00
6:53 am 06:53 Cloudy 44 6.7 37 2.8 76 76 NNE 6 9 30.39 1029 10 16 0.00 0.00
7:53 am 07:53 Mostly Cloudy 44 6.7 37 2.8 76 76 N 7 11 30.41 1030 10 16 0.00 0.00
8:53 am 08:53 Mostly Cloudy 45 7.2 37 2.8 74 74 NNE 8 13 30.42 1030 10 16 0.00 0.00
9:53 am 09:53 Mostly Cloudy 47 8.3 39 3.9 74 74 E 7 11 30.44 1031 10 16 0.00 0.00
10:53 am 10:53 Mostly Cloudy 47 8.3 36 2.2 66 66 SSE 5 7 30.45 1031 10 16 0.00 0.00
11:53 am 11:53 Cloudy 49 9.4 37 2.8 64 64 NE 6 9 30.44 1031 10 16 0.00 0.00
12:53 pm 12:53 Mostly Cloudy 53 11.7 42 5.6 66 66 ENE 3 6 30.41 1030 10 16 0.00 0.00
1:53 pm 13:53 Mostly Cloudy 55 12.8 41 5 59 59 E 10 17 30.39 1029 10 16 0.00 0.00
2:53 pm 14:53 Partly Cloudy 57 13.9 44 6.7 62 62 E 12 19 30.33 1027 10 16 0.00 0.00
3:53 pm 15:53 Partly Cloudy 56 13.3 42 5.6 60 60 ESE 10 17 30.28 1026 10 16 0.00 0.00
4:53 pm 16:53 Partly Cloudy 57 13.9 43 6.1 60 60 E 12 19 30.24 1024 10 16 0.00 0.00
5:23 pm 17:23 Mostly Cloudy 58 14.4 44 6.7 60 60 E 10 17 30.24 1024 10 16 0.00 0.00
5:53 pm 17:53 Cloudy 57 13.9 44 6.7 62 62 E 10 17 30.24 1024 10 16 0.00 0.00
6:51 pm 18:51 Cloudy 57 14 45 7 63 63 ESE 6 9 30.24 1024 10 16 0.00 0.00
6:53 pm 18:53 Cloudy 57 13.9 45 7.2 64 64 ESE 6 9 30.23 1024 10 16 0.00 0.00
7:53 pm 19:53 Cloudy 56 13.3 46 7.8 70 70 ESE 7 11 30.27 1025 10 16 0.00 0.00
8:53 pm 20:53 Cloudy with Light Rain 56 13.3 47 8.3 72 72 E 10 17 30.20 1023 7 11 0.00 0.00
9:53 pm 21:53 Cloudy with Light Rain 54 12.2 49 9.4 83 83 E 21 33 30.16 1021 7 11 0.00 0.00
10:25 pm 22:25 Cloudy with Light Rain 54 12.2 48 8.9 80 80 ENE 6 9 30.19 1022 7 11 0.00 0.00
10:53 pm 22:53 Cloudy 54 12.2 49 9.4 83 83 ESE 7 11 30.19 1023 7 11 0.00 0.00
11:28 pm 23:28 Cloudy 53 11.7 48 8.9 83 83 ESE 7 11 30.18 1022 9 14 0.00 0.00
11:53 pm 23:53 Cloudy 53 11.7 49 9.4 86 86 SE 7 11 30.19 1022 10 16 0.00 0.00

Powered by Vaisala Xweather